TimeEST,TemperatureF,Dew PointF,Humidity,Sea Level PressureIn,VisibilityMPH,Wind Direction,Wind SpeedMPH,Gust SpeedMPH,PrecipitationIn,Events,Conditions,WindDirDegrees,DateUTC
12:56 AM,30.9,21.9,69,29.85,6.0,WSW,18.4,29.9,0.00,Snow,Light Snow,250,2013-02-12 05:56:00
1:56 AM,30.9,21.9,69,29.86,10.0,WSW,17.3,23.0,0.00,,Overcast,250,2013-02-12 06:56:00
2:15 AM,30.2,21.2,69,29.84,10.0,WSW,17.3,28.8,N/A,,Overcast,250,2013-02-12 07:15:00
2:54 AM,30.2,21.2,69,29.85,10.0,West,17.3,25.3,N/A,,Overcast,260,2013-02-12 07:54:00
2:56 AM,30.9,21.0,67,29.88,10.0,West,21.9,31.1,N/A,,Overcast,260,2013-02-12 07:56:00
3:25 AM,30.2,19.4,64,29.85,10.0,WSW,20.7,32.2,N/A,,Overcast,250,2013-02-12 08:25:00
3:47 AM,30.2,19.4,64,29.85,10.0,West,17.3,27.6,N/A,,Overcast,270,2013-02-12 08:47:00
3:56 AM,30.0,19.9,66,29.88,10.0,West,18.4,25.3,N/A,,Overcast,270,2013-02-12 08:56:00
4:56 AM,28.9,19.9,69,29.91,10.0,West,20.7,26.5,N/A,,Overcast,280,2013-02-12 09:56:00
5:56 AM,28.9,19.0,67,29.93,10.0,West,17.3,26.5,N/A,,Overcast,270,2013-02-12 10:56:00
6:56 AM,28.9,19.9,69,29.95,10.0,West,19.6,26.5,N/A,,Overcast,270,2013-02-12 11:56:00
7:56 AM,28.9,19.9,69,29.97,10.0,West,15.0,25.3,N/A,,Overcast,270,2013-02-12 12:56:00
8:56 AM,28.0,19.9,72,29.99,5.0,West,17.3,26.5,N/A,,Haze,270,2013-02-12 13:56:00
9:53 AM,28.4,21.2,74,29.95,4.0,West,12.7,20.7,0.00,,Haze,280,2013-02-12 14:53:00
9:56 AM,28.0,21.0,75,30.01,4.0,West,15.0,-,0.00,,Haze,270,2013-02-12 14:56:00
10:30 AM,28.4,21.2,74,29.95,5.0,West,12.7,23.0,N/A,,Haze,260,2013-02-12 15:30:00
10:56 AM,28.0,19.9,72,30.01,6.0,West,11.5,20.7,N/A,,Haze,260,2013-02-12 15:56:00
11:56 AM,28.0,21.0,75,30.02,10.0,West,16.1,-,N/A,,Overcast,280,2013-02-12 16:56:00
12:56 PM,28.9,19.9,69,29.99,10.0,West,15.0,23.0,N/A,,Overcast,270,2013-02-12 17:56:00
1:56 PM,30.0,19.9,66,29.98,10.0,West,13.8,21.9,N/A,,Overcast,280,2013-02-12 18:56:00
2:56 PM,30.0,19.9,66,29.91,10.0,West,12.7,19.6,N/A,,Overcast,270,2013-02-12 19:56:00
3:56 PM,30.0,19.9,66,29.96,10.0,West,13.8,-,N/A,,Overcast,260,2013-02-12 20:56:00
4:56 PM,28.9,21.0,72,29.99,10.0,West,9.2,-,N/A,,Overcast,270,2013-02-12 21:56:00
5:56 PM,28.9,21.0,72,30.01,10.0,WSW,8.1,-,N/A,,Overcast,250,2013-02-12 22:56:00
6:41 PM,26.6,19.4,74,29.94,10.0,West,5.8,-,N/A,,Scattered Clouds,260,2013-02-12 23:41:00
6:56 PM,27.0,19.9,75,30.00,10.0,WSW,4.6,-,N/A,,Clear,250,2013-02-12 23:56:00
7:56 PM,26.1,19.9,78,29.97,10.0,Calm,Calm,-,N/A,,Clear,0,2013-02-13 00:56:00
8:56 PM,25.0,19.0,78,29.96,9.0,Calm,Calm,-,N/A,,Clear,0,2013-02-13 01:56:00
9:56 PM,23.0,19.0,85,29.94,8.0,Calm,Calm,-,N/A,,Clear,0,2013-02-13 02:56:00
10:56 PM,23.0,19.0,85,29.94,8.0,Calm,Calm,-,N/A,,Clear,0,2013-02-13 03:56:00
11:56 PM,23.0,19.9,88,29.93,6.0,South,3.5,-,N/A,,Clear,170,2013-02-13 04:56:00